Parkersburg, WV

7:41 AM EDT on October 14, 2019 (GMT -0400)
Wood County Wilson

Weather History for KPKB - August, 2019

Change the Weather History Date:

Wednesday, August 14, 2019

  Actual Average Record
Temperature  
Mean Temperature 78 °F 74 °F  
Max Temperature 86 °F 85 °F 98 °F (1959)
Min Temperature 69 °F 63 °F 48 °F (2004)
Degree Days  
Heating Degree Days 0 0  
Month to date heating degree days 0 0  
Since 1 June heating degree days 16 20  
Since 1 July heating degree days 0 1  
Cooling Degree Days 13 9  
Month to date cooling degree days 132 126  
Year to date cooling degree days 829 693  
Since 1 June cooling degree days 684 609  
Growing Degree Days 26 (Base 50)    
Moisture  
Dew Point 69 °F    
Average Humidity 78    
Maximum Humidity 100    
Minimum Humidity 55    
Precipitation  
Precipitation 0.00 in 0.12 in 2.33 in (1947)
Month to date precipitation 3.04 1.68  
Year to date precipitation 32.48 26.86  
Sea Level Pressure  
Sea Level Pressure 29.92 in    
Wind  
Wind Speed 2 mph (NW)    
Max Wind Speed 9 mph    
Max Gust Speed 11 mph    
Visibility 6 miles    
Events Fog    
T = Trace of Precipitation, MM = Missing Value Source: NWS Daily Summary

Daily Weather History Graph

Daily Weather History Graph

Search for Another Location

Airport or City:

Astronomy

Aug. 14, 2019 Rise Set
Actual Time 6:37 AM EDT 8:22 PM EDT
Civil Twilight 6:08 AM EDT 8:51 PM EDT
Nautical Twilight 5:33 AM EDT 9:26 PM EDT
Astronomical Twilight 4:56 AM EDT 10:03 PM EDT
Moon 8:15 PM EDT 5:34 AM EDT
Length of Visible Light 14h 42m
Length of Day
13h 45m
Waxing Gibbous, 99% of the Moon is Illuminated
Aug 14
Waxing Gibbous
Aug 15
Full
Aug 23
Last Quarter
Aug 30
New
Sep 5
First Quarter

Hourly Weather History & Observations

Time (EDT) Temp. Heat Index Dew Point Humidity Pressure Visibility Wind Dir Wind Speed Gust Speed Precip Events Conditions
12:53 AM 72.0 °F - 70.0 °F 93% 29.86 in 9.0 mi Calm Calm - N/A   Overcast
1:53 AM 71.1 °F - 70.0 °F 96% 29.86 in 4.0 mi Calm Calm - N/A   Overcast
2:32 AM 71.1 °F - 70.0 °F 96% 29.88 in 5.0 mi Calm Calm - N/A   Overcast
2:53 AM 71.1 °F - 70.0 °F 96% 29.86 in 6.0 mi Calm Calm - N/A   Overcast
3:11 AM 72.0 °F - 70.0 °F 93% 29.88 in 5.0 mi Calm Calm - N/A   Overcast
3:53 AM 71.1 °F - 70.0 °F 96% 29.86 in 7.0 mi NNW 4.6 mph - N/A   Overcast
4:25 AM 72.0 °F - 70.0 °F 93% 29.89 in 8.0 mi Calm Calm - N/A   Overcast
4:42 AM 72.0 °F - 70.0 °F 93% 29.89 in 8.0 mi Calm Calm - N/A   Overcast
4:53 AM 71.1 °F - 70.0 °F 96% 29.87 in 8.0 mi Calm Calm - N/A   Overcast
5:11 AM 71.1 °F - 69.1 °F 93% 29.89 in 2.5 mi Calm Calm - N/A   Mostly Cloudy
5:20 AM 71.1 °F - 69.1 °F 93% 29.89 in 6.0 mi NNW 3.5 mph - N/A   Partly Cloudy
5:29 AM 70.0 °F - 68.0 °F 93% 29.90 in 1.5 mi Calm Calm - N/A   Partly Cloudy
5:31 AM 70.0 °F - 68.0 °F 93% 29.90 in 0.8 mi Calm Calm - N/A   Mist
5:40 AM 70.0 °F - 68.0 °F 93% 29.90 in 0.2 mi Calm Calm - N/A Fog Fog
5:53 AM 70.0 °F - 69.1 °F 97% 29.88 in 0.2 mi Calm Calm - N/A Fog Fog
6:09 AM 69.1 °F - 68.0 °F 96% 29.91 in 0.2 mi Calm Calm - N/A Fog Fog
6:17 AM 69.1 °F - 68.0 °F 96% 29.92 in 0.5 mi Calm Calm - N/A Fog Fog
6:20 AM 69.1 °F - 68.0 °F 96% 29.92 in 1.0 mi Calm Calm - N/A   Mist
6:26 AM 70.0 °F - 69.1 °F 97% 29.92 in 3.0 mi Calm Calm - N/A   Overcast
6:35 AM 69.1 °F - 69.1 °F 100% 29.92 in 0.5 mi Calm Calm - N/A Fog Fog
6:43 AM 69.1 °F - 68.0 °F 96% 29.92 in 0.2 mi Calm Calm - N/A Fog Fog
6:53 AM 70.0 °F - 69.1 °F 97% 29.91 in 3.0 mi Calm Calm - N/A Fog Patches of Fog
7:53 AM 71.1 °F - 70.0 °F 96% 29.94 in 2.0 mi WNW 3.5 mph - N/A Fog Patches of Fog
8:18 AM 72.0 °F - 70.0 °F 93% 29.96 in 5.0 mi NW 3.5 mph - N/A   Overcast
8:53 AM 73.0 °F - 70.0 °F 90% 29.94 in 6.0 mi Calm Calm - N/A   Overcast
9:14 AM 73.9 °F - 70.0 °F 87% 29.96 in 8.0 mi NNW 3.5 mph - N/A   Mostly Cloudy
9:53 AM 75.9 °F - 69.1 °F 79% 29.94 in 10.0 mi Calm Calm - N/A   Mostly Cloudy
10:08 AM 75.0 °F - 69.1 °F 82% 29.97 in 10.0 mi Calm Calm - N/A   Overcast
10:53 AM 77.0 °F - 70.0 °F 79% 29.95 in 10.0 mi NW 4.6 mph - N/A   Mostly Cloudy
11:53 AM 79.0 °F - 69.1 °F 72% 29.95 in 10.0 mi NNW 4.6 mph - N/A   Overcast
12:14 PM 78.1 °F - 69.1 °F 74% 29.97 in 10.0 mi NW 5.8 mph - N/A   Mostly Cloudy
12:21 PM 80.1 °F 83.2 °F 70.0 °F 71% 29.97 in 10.0 mi Variable 3.5 mph - N/A   Scattered Clouds
12:53 PM 82.0 °F 85.9 °F 70.0 °F 67% 29.94 in 10.0 mi NW 4.6 mph - N/A   Scattered Clouds
1:53 PM 82.0 °F 85.5 °F 69.1 °F 65% 29.93 in 10.0 mi Variable 4.6 mph - N/A   Scattered Clouds
2:53 PM 84.0 °F 87.0 °F 68.0 °F 58% 29.92 in 10.0 mi Variable 3.5 mph - N/A   Partly Cloudy
3:53 PM 84.9 °F 88.2 °F 68.0 °F 57% 29.92 in 10.0 mi Variable 4.6 mph - N/A   Clear
4:53 PM 84.0 °F 86.3 °F 66.0 °F 55% 29.92 in 10.0 mi Calm Calm - N/A   Clear
5:53 PM 84.0 °F 86.3 °F 66.0 °F 55% 29.91 in 10.0 mi Variable 3.5 mph - N/A   Clear
6:53 PM 82.0 °F 84.9 °F 68.0 °F 62% 29.90 in 10.0 mi NNW 3.5 mph - N/A   Clear
7:53 PM 80.1 °F 82.9 °F 69.1 °F 69% 29.91 in 10.0 mi NW 3.5 mph - N/A   Clear
8:53 PM 75.0 °F - 70.0 °F 84% 29.93 in 10.0 mi Calm Calm - N/A   Clear
9:53 PM 72.0 °F - 70.0 °F 93% 29.95 in 8.0 mi Calm Calm - N/A   Clear
10:53 PM 71.1 °F - 68.0 °F 90% 29.97 in 8.0 mi Calm Calm - N/A   Partly Cloudy
11:53 PM 70.0 °F - 68.0 °F 93% 29.96 in 7.0 mi Calm Calm - N/A   Overcast